timestamp,surface_pressure_avg,surface_temp_avg,battery_voltage,lat,long
2023-10-14 00:09:01+00:00,362.8846,13.0,11.61,47.84626,-54.09684
2023-10-14 00:19:01+00:00,359.6796,13.0,11.61,47.84626,-54.09684
2023-10-14 00:29:01+00:00,359.8946,13.0,11.61,47.84626,-54.09684
2023-10-14 00:39:01+00:00,356.7195,13.0,11.61,47.84626,-54.09684
2023-10-14 00:49:01+00:00,351.1463,13.0,11.61,47.84626,-54.09684
2023-10-14 00:59:01+00:00,345.2346,13.0,11.61,47.84626,-54.09684
2023-10-14 01:09:01+00:00,342.0863,13.0,11.61,47.84626,-54.09684
2023-10-14 01:19:01+00:00,335.278,13.0,11.61,47.84626,-54.09684
2023-10-14 01:29:01+00:00,326.5963,13.0,11.61,47.84626,-54.09684
2023-10-14 01:39:01+00:00,320.4647,13.0,11.61,47.84626,-54.09684
2023-10-14 01:49:01+00:00,316.7713,13.0,11.61,47.84626,-54.09684
2023-10-14 01:59:01+00:00,305.333,13.0,11.61,47.84626,-54.09684
2023-10-14 02:09:01+00:00,296.233,13.0,11.61,47.84626,-54.09684
2023-10-14 02:19:00+00:00,292.4813,13.0,11.61,47.84626,-54.09684
2023-10-14 02:29:00+00:00,286.613,13.0,11.61,47.84626,-54.09684
2023-10-14 02:39:00+00:00,272.0064,13.0,11.61,47.84626,-54.09684
2023-10-14 02:49:00+00:00,263.3447,13.0,11.61,47.84626,-54.09684
2023-10-14 02:59:00+00:00,261.1931,13.0,11.61,47.84626,-54.09684
2023-10-14 03:09:00+00:00,255.0547,13.0,11.61,47.84626,-54.09684
2023-10-14 03:19:00+00:00,246.2564,13.0,11.61,47.84626,-54.09684
2023-10-14 03:29:00+00:00,242.2114,13.0,11.61,47.84626,-54.09684
2023-10-14 03:39:00+00:00,238.6114,13.0,11.61,47.84626,-54.09684
2023-10-14 03:49:00+00:00,229.8597,13.0,11.61,47.84626,-54.09684
2023-10-14 03:59:00+00:00,227.1848,13.0,11.61,47.84626,-54.09684
2023-10-14 04:09:00+00:00,227.7431,13.0,11.61,47.84626,-54.09684
2023-10-14 04:19:00+00:00,224.738,13.0,11.61,47.84626,-54.09684
2023-10-14 04:29:00+00:00,219.4915,13.0,11.61,47.84626,-54.09684
2023-10-14 04:39:00+00:00,215.7997,13.0,11.61,47.84626,-54.09684
2023-10-14 04:49:00+00:00,215.3031,13.0,11.61,47.84626,-54.09684
2023-10-14 04:59:00+00:00,215.7881,13.0,11.61,47.84626,-54.09684
2023-10-14 05:09:00+00:00,214.3931,13.0,11.61,47.84626,-54.09684
2023-10-14 05:19:00+00:00,213.3181,13.0,11.53,47.84626,-54.09684
2023-10-14 05:29:00+00:00,215.2681,13.0,11.53,47.84626,-54.09684
2023-10-14 05:39:00+00:00,218.0231,13.0,11.53,47.84626,-54.09684
2023-10-14 05:49:00+00:00,217.3748,13.0,11.53,47.84626,-54.09684
2023-10-14 05:59:00+00:00,217.4247,13.0,11.53,47.84626,-54.09684
2023-10-14 06:09:00+00:00,221.8614,13.0,11.53,47.84626,-54.09684
2023-10-14 06:19:00+00:00,227.8831,13.0,11.61,47.84626,-54.09684
2023-10-14 06:29:00+00:00,234.4648,12.99,11.61,47.84626,-54.09684
2023-10-14 06:39:00+00:00,240.6748,12.98,11.61,47.84626,-54.09684
2023-10-14 06:49:00+00:00,249.1497,12.93,11.61,47.84626,-54.09684
2023-10-14 06:59:00+00:00,251.1897,12.95,11.61,47.84626,-54.09684
2023-10-14 07:09:00+00:00,251.8497,12.96,11.61,47.84626,-54.09684
2023-10-14 07:19:00+00:00,256.6064,12.95,11.61,47.84626,-54.09684
2023-10-14 07:29:00+00:00,266.7364,12.94,11.61,47.84626,-54.09684
2023-10-14 07:39:00+00:00,272.8081,12.94,11.61,47.84626,-54.09684
2023-10-14 07:49:00+00:00,274.4464,12.9,11.61,47.84626,-54.09684
2023-10-14 07:59:00+00:00,274.6397,12.9,11.61,47.84626,-54.09684
2023-10-14 08:09:00+00:00,280.5847,12.9,11.61,47.84626,-54.09684
2023-10-14 08:19:00+00:00,292.6464,12.9,11.53,47.84626,-54.09684
2023-10-14 08:29:00+00:00,302.1381,12.9,11.53,47.84626,-54.09684
2023-10-14 08:39:00+00:00,302.0197,12.9,11.53,47.84626,-54.09684
2023-10-14 08:49:00+00:00,307.2413,12.9,11.53,47.84626,-54.09684
2023-10-14 08:59:00+00:00,315.6547,12.9,11.53,47.84626,-54.09684
2023-10-14 09:09:00+00:00,315.093,12.9,11.53,47.84626,-54.09684
2023-10-14 09:19:00+00:00,315.8697,12.9,11.53,47.84626,-54.09684
2023-10-14 09:29:00+00:00,334.2946,12.9,11.53,47.84626,-54.09684
2023-10-14 09:39:00+00:00,345.6596,12.9,11.53,47.84626,-54.09684
2023-10-14 09:49:00+00:00,342.8129,12.9,11.53,47.84626,-54.09684
2023-10-14 09:59:00+00:00,347.7764,12.9,11.53,47.84626,-54.09684
2023-10-14 10:09:00+00:00,360.4147,12.9,11.53,47.84626,-54.09684
2023-10-14 10:19:00+00:00,362.6613,12.9,11.53,47.84626,-54.09684
2023-10-14 10:29:00+00:00,362.4896,12.9,11.53,47.84626,-54.09684
2023-10-14 10:39:00+00:00,371.7913,12.9,11.53,47.84626,-54.09684
2023-10-14 10:49:00+00:00,383.4512,12.9,11.53,47.84626,-54.09684
2023-10-14 10:59:00+00:00,376.1413,12.9,11.53,47.84626,-54.09684
2023-10-14 11:09:00+00:00,373.6329,12.9,11.53,47.84626,-54.09684
2023-10-14 11:19:01+00:00,384.5295,12.9,11.53,47.84626,-54.09684
2023-10-14 11:29:01+00:00,379.4763,12.9,11.53,47.84626,-54.09684
2023-10-14 11:39:01+00:00,367.3479,12.9,11.53,47.84626,-54.09684
2023-10-14 11:49:01+00:00,377.4512,12.9,11.53,47.84626,-54.09684
2023-10-14 11:59:01+00:00,383.1013,12.9,11.53,47.84626,-54.09684
2023-10-14 12:09:01+00:00,368.2596,12.9,11.53,47.84626,-54.09684
2023-10-14 12:19:01+00:00,363.8746,12.9,11.53,47.84626,-54.09684
2023-10-14 12:29:01+00:00,374.4113,12.9,11.53,47.84626,-54.09684
2023-10-14 12:39:01+00:00,370.9495,12.9,11.53,47.84626,-54.09684
2023-10-14 12:49:01+00:00,356.2697,12.9,11.53,47.84626,-54.09684
2023-10-14 12:59:01+00:00,356.0413,12.9,11.53,47.84626,-54.09684
2023-10-14 13:09:01+00:00,354.958,12.9,11.53,47.84626,-54.09684
2023-10-14 13:19:01+00:00,345.4862,12.9,11.53,47.84626,-54.09684
2023-10-14 13:29:01+00:00,340.26800000000014,12.9,11.53,47.84626,-54.09684
2023-10-14 13:39:01+00:00,337.423,12.9,11.53,47.84626,-54.09684
2023-10-14 13:49:01+00:00,333.5113,12.9,11.53,47.84626,-54.09684
2023-10-14 13:59:01+00:00,326.0013,12.9,11.53,47.84626,-54.09684
2023-10-14 14:09:01+00:00,318.1663,12.9,11.53,47.84626,-54.09684
2023-10-14 14:19:00+00:00,304.1364,12.9,11.53,47.84626,-54.09684
2023-10-14 14:29:00+00:00,303.048,12.9,11.53,47.84626,-54.09684
2023-10-14 14:39:00+00:00,301.4896,12.9,11.53,47.84626,-54.09684
2023-10-14 14:49:00+00:00,291.7563,12.9,11.53,47.84626,-54.09684
2023-10-14 14:59:00+00:00,275.7497,12.9,11.53,47.84626,-54.09684
2023-10-14 15:09:00+00:00,271.0781,12.9,11.53,47.84626,-54.09684
2023-10-14 15:19:01+00:00,267.7014,12.91,11.53,47.84626,-54.09684
2023-10-14 15:29:01+00:00,253.4248,12.92,11.53,47.84626,-54.09684
2023-10-14 15:39:01+00:00,243.6264,12.95,11.53,47.84626,-54.09684
2023-10-14 15:49:01+00:00,244.6947,12.95,11.53,47.84626,-54.09684
2023-10-14 15:59:01+00:00,240.5865,12.96,11.53,47.84626,-54.09684
2023-10-14 16:09:01+00:00,232.6948,12.93,11.53,47.84626,-54.09684
2023-10-14 16:19:00+00:00,227.1482,12.9,11.53,47.84626,-54.09684
2023-10-14 16:29:00+00:00,217.9714,12.9,11.53,47.84626,-54.09684
2023-10-14 16:39:00+00:00,209.7164,12.92,11.53,47.84626,-54.09684
2023-10-14 16:49:00+00:00,212.7581,12.93,11.53,47.84626,-54.09684
2023-10-14 16:59:00+00:00,211.0197,12.9,11.53,47.84626,-54.09684
2023-10-14 17:09:00+00:00,199.7831,12.91,11.53,47.84626,-54.09684
2023-10-14 17:19:00+00:00,195.0164,12.97,11.53,47.84626,-54.09684
2023-10-14 17:29:00+00:00,203.0931,12.98,11.53,47.84626,-54.09684
2023-10-14 17:39:00+00:00,199.8565,12.96,11.53,47.84626,-54.09684
2023-10-14 17:49:00+00:00,193.8748,12.9,11.53,47.84626,-54.09684
2023-10-14 17:59:00+00:00,205.1431,12.9,11.53,47.84626,-54.09684
2023-10-14 18:09:00+00:00,208.0931,12.9,11.53,47.84626,-54.09684
2023-10-14 18:19:00+00:00,203.1048,12.92,11.53,47.84626,-54.09684
2023-10-14 18:29:00+00:00,208.1564,12.94,11.53,47.84626,-54.09684
2023-10-14 18:39:00+00:00,214.7798,12.94,11.53,47.84626,-54.09684
2023-10-14 18:49:00+00:00,216.3197,12.96,11.53,47.84626,-54.09684
2023-10-14 18:59:00+00:00,219.2831,12.96,11.53,47.84626,-54.09684
2023-10-14 19:09:00+00:00,227.7298,12.93,11.53,47.84626,-54.09684
2023-10-14 19:19:00+00:00,231.1514,12.9,11.53,47.84626,-54.09684
2023-10-14 19:29:00+00:00,235.5698,12.9,11.53,47.84626,-54.09684
2023-10-14 19:39:00+00:00,243.8064,12.9,11.53,47.84626,-54.09684
2023-10-14 19:49:00+00:00,247.7531,12.9,11.53,47.84626,-54.09684
2023-10-14 19:59:00+00:00,246.9648,12.9,11.53,47.84626,-54.09684
2023-10-14 20:09:00+00:00,258.3364,12.9,11.53,47.84626,-54.09684
2023-10-14 20:19:00+00:00,268.8881,12.9,11.53,47.84626,-54.09684
2023-10-14 20:29:00+00:00,271.6147,12.9,11.53,47.84626,-54.09684
2023-10-14 20:39:00+00:00,272.8714,12.9,11.53,47.84626,-54.09684
2023-10-14 20:49:00+00:00,284.7298,12.9,11.53,47.84626,-54.09684
2023-10-14 20:59:00+00:00,293.7996,12.9,11.53,47.84626,-54.09684
2023-10-14 21:09:00+00:00,297.0747,12.9,11.53,47.84626,-54.09684
2023-10-14 21:19:00+00:00,299.6764,12.9,11.53,47.84626,-54.09684
2023-10-14 21:29:00+00:00,310.123,12.9,11.53,47.84626,-54.09684
2023-10-14 21:39:00+00:00,319.0397,12.9,11.53,47.84626,-54.09684
2023-10-14 21:49:00+00:00,322.948,12.9,11.53,47.84626,-54.09684
2023-10-14 21:59:00+00:00,326.5114,12.9,11.53,47.84626,-54.09684
2023-10-14 22:09:00+00:00,338.843,12.9,11.53,47.84626,-54.09684
2023-10-14 22:19:01+00:00,347.9263,12.9,11.53,47.84626,-54.09684
2023-10-14 22:29:01+00:00,348.423,12.9,11.53,47.84626,-54.09684
2023-10-14 22:39:01+00:00,351.7629,12.9,11.53,47.84626,-54.09684
2023-10-14 22:49:01+00:00,358.9229,12.9,11.53,47.84626,-54.09684
2023-10-14 22:59:01+00:00,361.2946,12.9,11.53,47.84626,-54.09684
2023-10-14 23:09:01+00:00,361.4446,12.9,11.53,47.84626,-54.09684
2023-10-14 23:19:01+00:00,363.7362,12.89,11.53,47.84626,-54.09684
2023-10-14 23:29:01+00:00,367.8329,12.9,11.53,47.84626,-54.09684
2023-10-14 23:39:01+00:00,367.3079,12.9,11.53,47.84626,-54.09684
2023-10-14 23:49:01+00:00,368.5612,12.9,11.53,47.84626,-54.09684
2023-10-14 23:59:01+00:00,368.8863,12.89,11.53,47.84626,-54.09684
